Location: Penum?ka
(16.4840°N, 80.5772°E)
Time: 14:13:09
(UTC+00:00)

NOAA 6 - Pass Details

Date: 19 May 2025
Orbit: 768 x 780 km, 98.6° (Epoch: 17 June)

Event Time Altitude Azimuth Distance (km) Brightness Sun altitude
Rises 13:44:50 0° 173° (S) 3,224 6.9 -10.2°
Reaches altitude 10° 13:47:08 10° 175° (S) 2,300 6.2 -10.7°
Maximum altitude 13:52:10 68° 258° (WSW) 823 4.3 -11.8°
Drops below altitude 10° 13:57:14 10° 341° (NNW) 2,308 7.1 -12.9°
Sets 13:59:33 0° 344° (NNW) 3,237 7.9 -13.4°
